Location: Cabri�res
(43.7840°N, 5.4986°E)
Time: 10:06:04
(UTC+00:00)

USA 186 - Pass Details

Date: 09 April 2020
Orbit: 261 x 446 km, 96.9° (Epoch: 04 June)

Event Time Altitude Azimuth Distance (km) Brightness Sun altitude
Rises 18:08:09 0° 126° (SE) 2,408 5.0 0.4°
Reaches altitude 10° 18:10:59 10° 99° (E) 1,513 3.9 -0.1°
Drops below altitude 10° 18:14:14 10° 38° (NE) 1,475 4.3 -0.7°
Enters shadow 19:11:40 -60° 170° (S) 11,518 8.9 -10.6°
Maximum altitude 19:43:20 33° 262° (W) 735 3.5 -15.8°
